Nellis AFB, NV

1:25 AM PST on December 07, 2019 (GMT -0800)
Nellis Air Force Base

Weather History for KLSV - October, 2019

Change the Weather History Date:

Tuesday, October 1, 2019

  Actual Average Record
Temperature  
Mean Temperature 62 °F -  
Max Temperature 78 °F 88 °F 102 °F (2000)
Min Temperature 46 °F 61 °F 46 °F (2019)
Degree Days  
Heating Degree Days 3    
Growing Degree Days 12 (Base 50)    
Moisture  
Dew Point 14 °F    
Average Humidity 15    
Maximum Humidity 25    
Minimum Humidity 9    
Precipitation  
Precipitation 0.00 in - - ()
Sea Level Pressure  
Sea Level Pressure 29.77 in    
Wind  
Wind Speed 3 mph (East)    
Max Wind Speed 12 mph    
Max Gust Speed -    
Visibility 10 miles    
Events      
Averages and records for this station are not official NWS values.
T = Trace of Precipitation, MM = Missing Value Source: NWS Daily Summary

Daily Weather History Graph

Daily Weather History Graph

Search for Another Location

Airport or City:

Astronomy

Oct. 01, 2019 Rise Set
Actual Time 6:35 AM PDT 6:23 PM PDT
Civil Twilight 6:09 AM PDT 6:49 PM PDT
Nautical Twilight 5:39 AM PDT 7:19 PM PDT
Astronomical Twilight 5:09 AM PDT 7:49 PM PDT
Moon 9:50 AM PDT (10/1) 8:45 PM PDT (10/1)
Length of Visible Light 12h 40m
Length of Day
11h 48m
Waxing Crescent, 13% of the Moon is Illuminated
Oct 1
Waxing Crescent
Oct 5
First Quarter
Oct 13
Full
Oct 21
Last Quarter
Oct 27
New

Hourly Weather History & Observations

Time (PDT) Temp. Dew Point Humidity Pressure Visibility Wind Dir Wind Speed Gust Speed Precip Events Conditions
12:58 AM 62.6 °F 8.6 °F 12% 29.70 in 10.0 mi NW 2.3 mph - N/A   Clear
1:58 AM 55.4 °F 8.6 °F 15% 29.73 in 10.0 mi North 3.5 mph - N/A   Clear
2:58 AM 51.8 °F 8.6 °F 18% 29.72 in 10.0 mi ENE 3.5 mph - N/A   Clear
3:58 AM 50.0 °F 8.6 °F 19% 29.73 in 10.0 mi ENE 2.3 mph - N/A   Clear
4:58 AM 48.2 °F 8.6 °F 20% 29.74 in 10.0 mi East 3.5 mph - N/A   Clear
5:58 AM 48.2 °F 12.2 °F 24% 29.75 in 10.0 mi North 3.5 mph - N/A   Unknown
6:58 AM 46.4 °F 12.2 °F 25% 29.78 in 10.0 mi Calm Calm - N/A   Clear
7:58 AM 52.3 °F 13.5 °F 21% 29.79 in 10.0 mi Calm Calm - N/A   Clear
9:58 AM 64.0 °F 15.4 °F 15% 29.80 in 10.0 mi Calm Calm - N/A   Clear
10:58 AM 67.8 °F 15.1 °F 13% 29.80 in 10.0 mi Calm Calm - N/A   Clear
11:58 AM 72.1 °F 14.7 °F 11% 29.77 in 10.0 mi Calm Calm - N/A   Clear
12:58 PM 73.8 °F 18.0 °F 12% 29.77 in 10.0 mi Calm Calm - N/A   Clear
1:58 PM 74.8 °F 20.7 °F 13% 29.75 in 10.0 mi Calm Calm - N/A   Clear
2:58 PM 77.4 °F 24.4 °F 14% 29.77 in 10.0 mi ESE 3.5 mph - N/A   Clear
3:58 PM 78.8 °F 23.7 °F 13% 29.73 in 10.0 mi SE 11.5 mph - N/A   Clear
4:58 PM 78.3 °F 23.4 °F 13% 29.72 in 10.0 mi South 8.1 mph - N/A   Clear
5:58 PM 75.7 °F 12.9 °F 9% 29.74 in 10.0 mi South 10.4 mph - N/A   Clear
6:58 PM 73.4 °F 15.3 °F 11% 29.77 in 10.0 mi SSE 4.6 mph - N/A   Clear
7:58 PM 70.7 °F 14.9 °F 12% 29.78 in 10.0 mi South 6.9 mph - N/A   Clear
8:58 PM 67.1 °F 12.9 °F 12% 29.80 in 10.0 mi WSW 2.3 mph - N/A   Clear
9:58 PM 64.4 °F 14.0 °F 14% 29.80 in 10.0 mi North 3.5 mph - N/A   Clear
10:58 PM 59.4 °F 12.6 °F 16% 29.82 in 10.0 mi NE 1.2 mph - N/A   Clear
11:58 PM 59.0 °F 14.0 °F 17% 29.84 in 10.0 mi WNW 3.5 mph - N/A   Clear